Weather History for Cumberland, WI

Change the Weather History Date:

Thursday, January 17, 2013

  Actual Average (KRPD) Record (KRPD)
Temperature  
Mean Temperature 8 °F -  
Max Temperature 14 °F 19 °F - (-1)
Min Temperature 3 °F 3 °F - (-1)
Degree Days  
Heating Degree Days 56    
Moisture  
Dew Point -1 °F    
Average Humidity 66    
Maximum Humidity 85    
Minimum Humidity 48    
Precipitation  
Precipitation 0.00 in - - ()
Sea Level Pressure  
Sea Level Pressure 30.27 in    
Wind  
Wind Speed 8 mph (WNW)    
Max Wind Speed 13 mph    
Max Gust Speed -    
Visibility 9 miles    
Events Snow    
Averages and records for this station are not official NWS values.
T = Trace of Precipitation, MM = Missing Value Source: NWS Daily Summary

Daily Weather History Graph

Daily Weather History Graph

Search for Another Location

Airport:

Trip Planner

Search our weather history database for the weather conditions in past years. The results will help you decide how hot, cold, wet, or windy it might be!

Date:

Astronomy

Jan. 17, 2013 Rise Set
Actual Time 7:42 AM CST 4:53 PM CST
Civil Twilight 7:09 AM CST 5:26 PM CST
Nautical Twilight 6:33 AM CST 6:03 PM CST
Astronomical Twilight 5:57 AM CST 6:38 PM CST
Moon 10:28 AM CST (1/17) No Moon Set
Length of Visible Light 10h 16m
Length of Day
9h 11m
Waxing Crescent, 38% of the Moon is Illuminated
Jan 17
Waxing Crescent
Jan 18
First Quarter
Jan 26
Full
Feb 3
Last Quarter
Feb 10
New

Hourly Weather History & Observations

Time (CST) Temp. Windchill Dew Point Humidity Pressure Visibility Wind Dir Wind Speed Gust Speed Precip Events Conditions
12:15 AM 10.4 °F -3.3 °F -5.8 °F 48% 30.19 in 10.0 mi NW 10.4 mph - N/A   Overcast
12:35 AM 10.4 °F -3.3 °F -5.8 °F 48% 30.19 in 10.0 mi NW 10.4 mph - N/A   Overcast
12:55 AM 8.6 °F -2.6 °F -4.0 °F 57% 30.20 in 10.0 mi NW 6.9 mph - N/A   Overcast
1:15 AM 8.6 °F -4.7 °F -5.8 °F 52% 30.20 in 10.0 mi NNW 9.2 mph - N/A   Overcast
1:35 AM 8.6 °F -7.0 °F -5.8 °F 52% 30.21 in 10.0 mi NNW 12.7 mph - N/A   Overcast
1:55 AM 8.6 °F -5.5 °F -5.8 °F 52% 30.21 in 10.0 mi NNW 10.4 mph - N/A   Overcast
2:15 AM 8.6 °F -2.6 °F -5.8 °F 52% 30.21 in 10.0 mi NNW 6.9 mph - N/A   Overcast
2:35 AM 6.8 °F -3.5 °F -4.0 °F 61% 30.23 in 10.0 mi NW 5.8 mph - N/A   Overcast
3:35 AM 5.0 °F -4.1 °F -5.8 °F 61% 30.23 in 10.0 mi North 4.6 mph - N/A   Mostly Cloudy
3:55 AM 5.0 °F -5.6 °F -5.8 °F 61% 30.23 in 10.0 mi NNW 5.8 mph - N/A   Overcast
4:15 AM 5.0 °F -5.6 °F -4.0 °F 66% 30.23 in 10.0 mi NNW 5.8 mph - N/A   Overcast
4:35 AM 5.0 °F -4.1 °F -4.0 °F 66% 30.23 in 10.0 mi WNW 4.6 mph - N/A   Overcast
4:55 AM 6.8 °F -5.9 °F -2.2 °F 67% 30.23 in 10.0 mi WNW 8.1 mph - N/A   Overcast
5:15 AM 6.8 °F -5.9 °F -2.2 °F 67% 30.24 in 10.0 mi WNW 8.1 mph - N/A   Overcast
5:35 AM 5.0 °F -6.9 °F -2.2 °F 72% 30.25 in 10.0 mi WNW 6.9 mph - N/A   Overcast
5:55 AM 5.0 °F -5.6 °F -4.0 °F 66% 30.26 in 10.0 mi WNW 5.8 mph - N/A   Overcast
6:15 AM 5.0 °F -6.9 °F -4.0 °F 66% 30.27 in 10.0 mi WNW 6.9 mph - N/A   Overcast
6:35 AM 5.0 °F -8.1 °F -4.0 °F 66% 30.28 in 10.0 mi WNW 8.1 mph - N/A   Overcast
6:55 AM 5.0 °F -5.6 °F -5.8 °F 61% 30.27 in 10.0 mi NW 5.8 mph - N/A   Overcast
7:15 AM 6.8 °F -2.0 °F -5.8 °F 56% 30.27 in 10.0 mi NW 4.6 mph - N/A   Overcast
7:35 AM 6.8 °F -3.5 °F -5.8 °F 56% 30.27 in 10.0 mi NW 5.8 mph - N/A   Overcast
7:55 AM 6.8 °F -0.1 °F -4.0 °F 61% 30.27 in 10.0 mi WNW 3.5 mph - N/A   Overcast
8:15 AM 6.8 °F -2.0 °F -4.0 °F 61% 30.28 in 10.0 mi West 4.6 mph - N/A   Overcast
8:35 AM 6.8 °F -3.5 °F -4.0 °F 61% 30.28 in 10.0 mi WSW 5.8 mph - N/A   Overcast
8:55 AM 8.6 °F -3.7 °F -4.0 °F 57% 30.29 in 10.0 mi West 8.1 mph - N/A   Overcast
9:15 AM 8.6 °F -2.6 °F -4.0 °F 57% 30.29 in 10.0 mi WSW 6.9 mph - N/A   Overcast
9:35 AM 8.6 °F -5.5 °F -4.0 °F 57% 30.31 in 10.0 mi West 10.4 mph - N/A   Overcast
9:55 AM 8.6 °F -4.7 °F -0.4 °F 67% 30.31 in 7.0 mi West 9.2 mph - N/A Snow Light Snow
10:15 AM 8.6 °F -5.5 °F 1.4 °F 73% 30.33 in 3.0 mi WNW 10.4 mph - N/A Snow Light Snow
10:35 AM 8.6 °F -2.6 °F 1.4 °F 73% 30.33 in 5.0 mi WNW 6.9 mph - N/A Snow Light Snow
10:55 AM 10.4 °F -0.4 °F 1.4 °F 67% 30.32 in 7.0 mi West 6.9 mph - N/A   Overcast
11:15 AM 10.4 °F -2.4 °F 1.4 °F 67% 30.31 in 7.0 mi WNW 9.2 mph - N/A Snow Light Snow
11:35 AM 10.4 °F -0.4 °F 3.2 °F 73% 30.30 in 3.0 mi West 6.9 mph - N/A Snow Light Snow
11:55 AM 10.4 °F -0.4 °F 3.2 °F 73% 30.30 in 3.0 mi West 6.9 mph - N/A Snow Light Snow
12:15 PM 10.4 °F -2.4 °F 3.2 °F 73% 30.30 in 4.0 mi WNW 9.2 mph - N/A Snow Light Snow
12:35 PM 12.2 °F 0.7 °F 3.2 °F 67% 30.30 in 3.0 mi West 8.1 mph - N/A Snow Light Snow
12:55 PM 12.2 °F -1.0 °F 3.2 °F 67% 30.29 in 7.0 mi West 10.4 mph - N/A Snow Light Snow
1:15 PM 12.2 °F -1.8 °F 3.2 °F 67% 30.29 in 10.0 mi West 11.5 mph - N/A   Overcast
1:35 PM 12.2 °F -0.2 °F 3.2 °F 67% 30.28 in 10.0 mi West 9.2 mph - N/A   Scattered Clouds
1:55 PM 12.2 °F -1.8 °F 3.2 °F 67% 30.28 in 10.0 mi WNW 11.5 mph - N/A   Scattered Clouds
2:15 PM 14.0 °F 2.0 °F 3.2 °F 62% 30.27 in 10.0 mi WNW 9.2 mph - N/A   Scattered Clouds
2:35 PM 12.2 °F -2.5 °F 3.2 °F 67% 30.28 in 10.0 mi West 12.7 mph - N/A   Scattered Clouds
2:55 PM 14.0 °F 1.2 °F 3.2 °F 62% 30.29 in 10.0 mi West 10.4 mph - N/A   Scattered Clouds
3:15 PM 14.0 °F 2.9 °F 3.2 °F 62% 30.29 in 10.0 mi NW 8.1 mph - N/A   Mostly Cloudy
3:35 PM 14.0 °F 1.2 °F 3.2 °F 62% 30.29 in 10.0 mi WNW 10.4 mph - N/A   Mostly Cloudy
3:55 PM 12.2 °F 1.7 °F 3.2 °F 67% 30.29 in 10.0 mi WNW 6.9 mph - N/A   Mostly Cloudy
4:55 PM 10.4 °F 2.2 °F 1.4 °F 67% 30.31 in 10.0 mi WNW 4.6 mph - N/A   Scattered Clouds
5:35 PM 8.6 °F 0.1 °F -0.4 °F 67% 30.31 in 10.0 mi West 4.6 mph - N/A   Clear
7:55 PM 3.2 °F -6.2 °F -0.4 °F 85% 30.32 in 10.0 mi West 4.6 mph - N/A   Clear
8:15 PM 3.2 °F -4.2 °F -0.4 °F 85% 30.32 in 10.0 mi West 3.5 mph - N/A   Clear
8:55 PM 3.2 °F - -0.4 °F 85% 30.30 in 10.0 mi Calm Calm - N/A   Scattered Clouds
9:15 PM 3.2 °F - -0.4 °F 85% 30.30 in 10.0 mi Calm Calm - N/A   Clear
9:35 PM 3.2 °F - -0.4 °F 85% 30.29 in 10.0 mi Calm Calm - N/A   Clear
9:55 PM 5.0 °F - 1.4 °F 85% 30.29 in 10.0 mi Calm Calm - N/A   Clear
11:15 PM 5.0 °F - 1.4 °F 85% 30.27 in 10.0 mi Calm Calm - N/A   Scattered Clouds
11:35 PM 6.8 °F - 1.4 °F 79% 30.27 in 10.0 mi Calm Calm - N/A   Mostly Cloudy
11:55 PM 6.8 °F - 3.2 °F 85% 30.26 in 10.0 mi Calm Calm - N/A   Mostly Cloudy